Location: Newark
(15.7058°N, 0.4100°E)
Time: 02:45:51
(UTC+00:00)

ISS - Visible Passes

Search period start: 11 December 2019 00:00
Search period end: 21 December 2019 00:00
Orbit: 411 x 421 km, 51.6° (Epoch: 11 December)

Date Brightness Start Highest point End Pass type
(mag) Time Alt. Az. Time Alt. Az. Time Alt. Az.
11 Dec -2.1 18:19:28 10° N 18:21:26 18° NE 18:21:26 18° NE visible
12 Dec -2.3 19:06:58 10° WNW 19:10:05 37° SW 19:10:49 32° SSW visible
13 Dec -3.9 18:18:19 10° NW 18:21:40 87° NE 18:25:01 10° SE visible
15 Dec -0.6 18:18:50 10° WNW 18:21:15 18° SW 18:23:40 10° S visible
19 Dec -1.0 05:12:27 10° S 05:15:03 22° SE 05:17:40 10° ENE visible
